Cloud_Cover
100 100 62 58 2 1 0 0 100 100 33 2 40 16 23 23 91 59 24 58 96 100 90 93 100 100 100 76 100 100 100 100 84 100 100 100 7 0 0 0 0 0 0 0
100 100 68 82 100 87 4 0 100 22 34 44 0 0 9 24 0 0 0 48 31 11 28 73 83 99 100 100 100 100 100 100 7 100 100 100 100 10 6 0 0 2 2 0
89 100 100 100 32 16 5 21 100 39 54 66 2 14 8 0 0 0 0 12 2 0 9 59 51 67 93 100 100 100 100 100 100 66 99 100 100 100 86 0 0 0 28 0
78 94 71 92 98 13 10 93 92 5 99 92 17 0 2 0 0 0 0 0 0 0 0 0 5 94 100 100 100 100 100 100 100 100 100 100 100 96 12 92 41 6 5 0
100 78 93 98 64 100 100 100 10 8 46 100 6 4 0 0 0 0 0 0 0 0 0 0 15 4 45 70 100 100 100 100 100 100 100 100 98 56 18 80 95 100 6 55
100 87 97 100 97 12 93 100 64 91 7 3 1 0 0 0 0 0 0 0 0 0 0 0 0 0 28 8 40 95 5 44 7 8 85 100 100 97 100 95 98 100 100 75
35 83 100 100 98 100 100 98 34 100 94 5 3 0 0 0 0 0 0 0 0 0 0 0 0 0 0 0 0 1 70 6 3 5 7 100 96 49 45 85 99 98 98 100
59 93 100 32 100 100 100 100 100 100 88 100 83 52 0 1 0 0 0 0 0 0 0 0 0 0 0 0 0 0 1 1 0 2 56 5 97 67 89 51 96 100 100 95
100 91 10 99 66 100 100 100 100 100 100 100 100 99 11 1 6 2 0 0 0 0 0 0 0 0 0 0 0 0 0 0 0 0 0 1 24 100 90 92 28 80 100 93
41 81 99 66 94 5 83 100 100 100 100 100 100 100 100 100 91 34 52 24 3 0 0 0 0 0 0 0 0 0 0 0 0 0 0 0 0 2 16 5 46 89 71 58
14 5 5 5 5 5 5 2 61 99 100 100 100 100 100 100 100 100 100 100 100 29 1 2 16 0 4 0 0 0 0 0 0 0 0 0 0 0 0 0 0 13 58 86
47 15 72 63 32 5 5 4 4 4 3 31 98 100 100 100 100 100 100 100 100 81 6 16 21 18 13 18 4 13 0 0 0 0 0 0 0 0 0 0 0 0 1 1
99 100 100 81 90 63 6 5 5 5 5 8 5 5 5 11 92 100 19 64 6 31 55 11 22 33 31 13 69 62 74 16 1 0 0 0 0 0 0 0 0 0 0 0
5 8 48 100 99 17 5 8 5 5 6 6 7 14 8 42 98 98 100 58 0 6 17 8 2 16 3 20 67 100 100 92 37 5 0 0 0 0 0 0 0 0 0 0
3 31 5 62 100 92 31 18 13 5 5 7 5 5 25 1 1 4 68 15 0 0 27 21 5 15 4 3 85 100 100 100 100 78 40 26 34 6 0 0 0 0 0 0
53 90 5 100 100 99 100 36 42 56 22 5 5 79 93 5 5 11 8 22 3 6 0 66 58 13 0 1 12 81 64 100 100 96 93 99 68 20 100 57 0 0 0 0
56 100 97 100 100 100 100 100 94 100 74 39 84 90 5 5 5 22 100 97 11 0 4 100 96 3 0 14 16 41 51 95 100 100 100 100 100 100 100 90 32 5 0 0
41 34 46 100 100 100 100 100 100 100 100 100 48 34 64 4 5 5 94 62 0 4 46 100 40 0 21 11 13 15 32 91 82 100 100 100 100 100 100 100 98 68 32 0
97 84 100 98 100 98 62 79 84 100 100 100 100 39 61 6 12 75 98 59 0 20 41 51 6 5 43 23 23 8 5 5 38 89 90 97 100 100 100 100 100 100 100 100
91 76 96 71 76 95 78 100 94 37 18 69 99 5 83 68 3 29 53 81 2 31 9 56 3 78 24 26 16 22 18 43 48 27 100 100 100 100 100 100 100 100 100 100
47 99 63 89 87 98 100 86 87 85 100 100 61 100 79 14 4 5 90 16 73 5 5 5 5 18 5 5 8 83 100 98 99 95 83 100 100 100 100 100 100 100 100 100
44 82 72 16 59 96 72 96 100 100 56 96 100 100 96 86 100 90 12 29 9 44 23 5 5 2 4 5 58 100 69 46 100 100 100 100 100 100 100 100 100 100 100 100
94 45 24 78 80 17 32 56 42 94 20 17 39 60 4 22 100 100 100 96 62 10 5 4 5 2 5 5 48 85 100 93 95 100 100 100 100 100 100 100 100 100 100 100
100 60 100 99 99 66 70 7 94 43 52 3 3 14 28 40 99 100 100 100 100 38 5 2 5 5 5 1 32 20 93 83 59 100 100 100 100 100 100 100 100 100 100 100
2 76 61 5 3 6 13 4 7 57 33 60 57 55 40 100 100 100 100 100 76 16 18 60 5 5 5 5 6 100 100 85 70 94 100 100 100 100 100 100 100 100 100 100
99 76 55 18 26 50 44 93 100 85 100 95 87 100 100 100 100 100 100 100 92 100 41 96 5 5 4 8 96 100 100 100 100 100 100 100 100 100 100 100 100 100 100 100
99 27 16 14 49 98 82 100 100 100 100 98 100 100 100 100 100 100 100 100 97 92 100 100 25 33 10 99 100 100 100 100 100 100 100 100 100 100 100 100 100 100 100 100